EW0184 Weather Reports


Display with metric or nautical units.
time (UTC)temp
F
wind
direction
speed
MPH
gust
MPH
rain 1hr
in
rain 24hr
in
rain mn
in
humidity
%
barometer
mb
20260901231538 92 284 0.0 5.0 0.00 0.00 0.00 31 1005.9
20260901231032 92 112 0.0 4.0 0.00 0.00 0.00 30 1005.9
20260901230630 93 153 0.0 2.0 0.00 0.00 0.00 32 1005.9
20260901230140 93 51 0.0 4.0 0.00 0.00 0.00 31 1006.0
20260901225621 93 118 0.0 4.0 0.00 0.00 0.00 31 1006.0
20260901225131 93 114 0.0 6.0 0.00 0.00 0.00 31 1006.0
20260901224625 93 346 0.0 7.0 0.00 0.00 0.00 32 1006.1
20260901224121 93 122 1.0 4.0 0.00 0.00 0.00 31 1006.1
20260901223634 92 271 0.0 3.0 0.00 0.00 0.00 31 1006.1
20260901223132 92 20 1.0 4.0 0.00 0.00 0.00 33 1006.2
20260901222627 91 290 0.0 3.0 0.00 0.00 0.00 35 1006.1
20260901222122 91 330 0.0 4.0 0.00 0.00 0.00 33 1006.2
20260901221634 91 267 0.0 5.0 0.00 0.00 0.00 32 1006.2
20260901221131 92 316 0.0 5.0 0.00 0.00 0.00 32 1006.3
20260901220626 93 278 0.0 3.0 0.00 0.00 0.00 31 1006.2
20260901220134 93 252 0.0 3.0 0.00 0.00 0.00 31 1006.1
20260901215628 93 64 0.0 4.0 0.00 0.00 0.00 31 1006.2
20260901215123 94 349 0.0 3.0 0.00 0.00 0.00 33 1006.3
20260901214634 93 98 0.0 3.0 0.00 0.00 0.00 30 1006.4
20260901214129 93 149 0.0 3.0 0.00 0.00 0.00 30 1006.5
20260901213624 93 160 0.0 3.0 0.00 0.00 0.00 32 1006.6
20260901213134 93 57 0.0 3.0 0.00 0.00 0.00 31 1006.6
20260901212628 93 329 0.0 6.0 0.00 0.00 0.00 34 1006.7
20260901212124 92 131 2.0 6.0 0.00 0.00 0.00 30 1006.8
20260901211636 92 283 0.0 2.0 0.00 0.00 0.00 30 1006.9
20260901211127 93 255 0.0 5.0 0.00 0.00 0.00 31 1006.9
20260901210625 94 113 0.0 5.0 0.00 0.00 0.00 28 1007.0
20260901210133 95 67 0.0 3.0 0.00 0.00 0.00 28 1007.0
20260901205627 94 156 0.0 4.0 0.00 0.00 0.00 31 1007.1
20260901205121 94 233 0.0 4.0 0.00 0.00 0.00 30 1007.1
20260901204633 94 41 0.0 4.0 0.00 0.00 0.00 30 1007.2
20260901204128 95 259 1.0 4.0 0.00 0.00 0.00 29 1007.4
20260901203511 95 89 1.0 4.0 0.00 0.00 0.00 29 1007.4
20260901203034 95 210 2.0 4.0 0.00 0.00 0.00 29 1007.5
20260901202528 94 147 1.0 5.0 0.00 0.00 0.00 28 1007.6
20260901202025 95 266 0.0 5.0 0.00 0.00 0.00 30 1007.7
20260901201531 95 302 0.0 7.0 0.00 0.00 0.00 29 1007.8
20260901201028 95 211 2.0 7.0 0.00 0.00 0.00 28 1007.8
20260901200526 95 158 2.0 7.0 0.00 0.00 0.00 30 1007.8
20260901200051 96 124 1.0 6.0 0.00 0.00 0.00 27 1007.8
20260901195531 96 212 0.0 5.0 0.00 0.00 0.00 29 1007.9
20260901195027 95 243 1.0 5.0 0.00 0.00 0.00 30 1007.9
20260901194540 95 102 1.0 5.0 0.00 0.00 0.00 31 1007.9
20260901194027 94 98 0.0 3.0 0.00 0.00 0.00 32 1008.0
20260901193521 94 270 1.0 6.0 0.00 0.00 0.00 31 1008.0
20260901193032 94 98 1.0 7.0 0.00 0.00 0.00 31 1008.1
20260901192528 94 92 1.0 5.0 0.00 0.00 0.00 31 1008.2
20260901192024 94 112 2.0 5.0 0.00 0.00 0.00 30 1008.2
20260901191538 95 127 0.0 4.0 0.00 0.00 0.00 30 1008.2
20260901191027 95 131 1.0 4.0 0.00 0.00 0.00 29 1008.3
20260901190522 94 172 0.0 5.0 0.00 0.00 0.00 29 1008.3
20260901190035 93 155 0.0 5.0 0.00 0.00 0.00 32 1008.5
20260901185527 92 147 1.0 4.0 0.00 0.00 0.00 36 1008.5
20260901185026 92 120 0.0 5.0 0.00 0.00 0.00 32 1008.6
20260901184530 93 255 2.0 5.0 0.00 0.00 0.00 33 1008.6
20260901184026 94 202 0.0 2.0 0.00 0.00 0.00 31 1008.6
20260901183521 93 176 0.0 2.0 0.00 0.00 0.00 32 1008.7
20260901183040 92 108 0.0 4.0 0.00 0.00 0.00 33 1008.8
20260901182525 92 141 0.0 3.0 0.00 0.00 0.00 33 1008.9
20260901182023 92 225 0.0 3.0 0.00 0.00 0.00 34 1008.9
20260901181531 92 132 0.0 2.0 0.00 0.00 0.00 33 1008.9
20260901181025 92 141 0.0 2.0 0.00 0.00 0.00 34 1009.1
20260901180536 91 63 0.0 2.0 0.00 0.00 0.00 36 1009.1
20260901180030 90 127 0.0 3.0 0.00 0.00 0.00 35 1009.1
20260901175528 90 120 1.0 3.0 0.00 0.00 0.00 34 1009.2
20260901175034 90 116 0.0 2.0 0.00 0.00 0.00 34 1009.3
20260901174534 91 94 1.0 2.0 0.00 0.00 0.00 33 1009.4
20260901174030 90 16 0.0 1.0 0.00 0.00 0.00 34 1009.4
20260901173524 89 15 0.0 1.0 0.00 0.00 0.00 37 1009.4
20260901173045 89 113 0.0 1.0 0.00 0.00 0.00 37 1009.5
20260901172532 88 124 0.0 2.0 0.00 0.00 0.00 36 1009.6
20260901172026 88 153 0.0 2.0 0.00 0.00 0.00 36 1009.5
20260901171523 88 110 0.0 2.0 0.00 0.00 0.00 37 1009.5
20260901171030 89 113 0.0 2.0 0.00 0.00 0.00 37 1009.4
20260901170526 88 205 0.0 1.0 0.00 0.00 0.00 39 1009.4
20260901170035 87 103 0.0 1.0 0.00 0.00 0.00 41 1009.5
20260901165532 87 229 0.0 1.0 0.00 0.00 0.00 43 1009.4
20260901165025 86 211 0.0 3.0 0.00 0.00 0.00 43 1009.4
20260901164533 87 118 0.0 3.0 0.00 0.00 0.00 43 1009.4
20260901164032 86 205 0.0 2.0 0.00 0.00 0.00 43 1009.4
20260901163525 85 117 0.0 1.0 0.00 0.00 0.00 45 1009.4
20260901163033 84 129 0.0 1.0 0.00 0.00 0.00 47 1009.4
20260901162530 84 160 0.0 1.0 0.00 0.00 0.00 50 1009.4
20260901162024 84 163 0.0 1.0 0.00 0.00 0.00 46 1009.4
20260901161533 83 131 0.0 1.0 0.00 0.00 0.00 46 1009.4
20260901161029 83 131 0.0 1.0 0.00 0.00 0.00 47 1009.4
20260901160524 82 162 0.0 1.0 0.00 0.00 0.00 48 1009.4
20260901160032 82 219 0.0 1.0 0.00 0.00 0.00 50 1009.4
20260901155528 82 222 0.0 1.0 0.00 0.00 0.00 48 1009.4
20260901155022 82 126 0.0 1.0 0.00 0.00 0.00 49 1009.4
20260901154530 81 121 0.0 1.0 0.00 0.00 0.00 50 1009.4
20260901154025 81 134 0.0 1.0 0.00 0.00 0.00 54 1009.5
20260901153536 79 250 0.0 1.0 0.00 0.00 0.00 55 1009.6
20260901153037 79 221 0.0 2.0 0.00 0.00 0.00 58 1009.6
20260901152525 78 124 0.0 2.0 0.00 0.00 0.00 58 1009.5
20260901152021 77 123 0.0 1.0 0.00 0.00 0.00 58 1009.6
20260901151530 77 125 0.0 0.0 0.00 0.00 0.00 61 1009.6
20260901151026 76 132 0.0 0.0 0.00 0.00 0.00 63 1009.6
20260901150535 75 133 0.0 0.0 0.00 0.00 0.00 66 1009.6
20260901150020 74 133 0.0 1.0 0.00 0.00 0.00 68 1009.7
20260901145533 73 132 0.0 1.0 0.00 0.00 0.00 69 1009.7
20260901145032 72 133 0.0 0.0 0.00 0.00 0.00 71 1009.7
20260901144535 72 133 0.0 1.0 0.00 0.00 0.00 71 1009.6
20260901144021 71 117 0.0 1.0 0.00 0.00 0.00 73 1009.6
20260901143532 71 117 0.0 0.0 0.00 0.00 0.00 73 1009.7
20260901143029 70 117 0.0 1.0 0.00 0.00 0.00 74 1009.7
20260901142523 70 114 0.0 1.0 0.00 0.00 0.00 76 1009.6
20260901142032 69 276 0.0 1.0 0.00 0.00 0.00 76 1009.6
20260901141526 68 277 0.0 0.0 0.00 0.00 0.00 77 1009.6
20260901141025 68 277 0.0 0.0 0.00 0.00 0.00 78 1009.5
20260901140533 67 277 0.0 0.0 0.00 0.00 0.00 79 1009.5
20260901140031 67 277 0.0 0.0 0.00 0.00 0.00 79 1009.4
20260901135524 66 276 0.0 0.0 0.00 0.00 0.00 78 1009.4
20260901135032 66 275 0.0 0.0 0.00 0.00 0.00 78 1009.4
20260901134528 66 275 0.0 0.0 0.00 0.00 0.00 78 1009.4
20260901134022 67 275 0.0 0.0 0.00 0.00 0.00 77 1009.3
20260901133533 66 276 0.0 0.0 0.00 0.00 0.00 76 1009.3
20260901133038 67 276 0.0 0.0 0.00 0.00 0.00 76 1009.3
20260901132523 67 276 0.0 0.0 0.00 0.00 0.00 76 1009.3
20260901132032 67 275 0.0 0.0 0.00 0.00 0.00 76 1009.2
20260901131533 67 277 0.0 0.0 0.00 0.00 0.00 75 1009.1
20260901131024 67 276 0.0 0.0 0.00 0.00 0.00 75 1009.2
20260901130533 67 276 0.0 0.0 0.00 0.00 0.00 74 1009.1
20260901130027 68 276 0.0 0.0 0.00 0.00 0.00 73 1009.0
20260901125523 68 275 0.0 0.0 0.00 0.00 0.00 72 1008.9
20260901125034 68 276 0.0 0.0 0.00 0.00 0.00 72 1008.9
20260901124527 68 276 0.0 0.0 0.00 0.00 0.00 71 1008.7
20260901124023 68 275 0.0 0.0 0.00 0.00 0.00 72 1008.6
20260901123536 68 275 0.0 0.0 0.00 0.00 0.00 72 1008.6
20260901123029 68 277 0.0 0.0 0.00 0.00 0.00 72 1008.5
20260901122526 68 277 0.0 0.0 0.00 0.00 0.00 72 1008.6
20260901122019 68 276 0.0 0.0 0.00 0.00 0.00 71 1008.6
20260901121537 68 277 0.0 0.0 0.00 0.00 0.00 71 1008.5
20260901121025 68 276 0.0 0.0 0.00 0.00 0.00 72 1008.5
20260901120535 68 276 0.0 0.0 0.00 0.00 0.00 71 1008.4
20260901120030 68 276 0.0 0.0 0.00 0.00 0.00 71 1008.4
20260901115528 68 277 0.0 0.0 0.00 0.00 0.00 71 1008.5
20260901115020 68 277 0.0 0.0 0.00 0.00 0.00 71 1008.3
20260901114532 68 277 0.0 0.0 0.00 0.00 0.00 71 1008.3
20260901114029 68 276 0.0 0.0 0.00 0.00 0.00 70 1008.3
20260901113523 68 276 0.0 0.0 0.00 0.00 0.00 71 1008.2
20260901113036 68 276 0.0 0.0 0.00 0.00 0.00 71 1008.3
20260901112530 69 275 0.0 0.0 0.00 0.00 0.00 70 1008.2
20260901112025 69 276 0.0 0.0 0.00 0.00 0.00 68 1008.3
20260901111537 69 276 0.0 0.0 0.00 0.00 0.00 67 1008.3
20260901111030 69 275 0.0 0.0 0.00 0.00 0.00 68 1008.3
20260901110524 69 276 0.0 1.0 0.00 0.00 0.00 67 1008.2
20260901110044 70 277 0.0 1.0 0.00 0.00 0.00 68 1008.2
20260901105533 70 356 0.0 1.0 0.00 0.00 0.00 66 1007.9
20260901105026 70 18 0.0 0.0 0.00 0.00 0.00 66 1007.9
20260901104521 71 17 0.0 0.0 0.00 0.00 0.00 67 1007.9
20260901104033 71 17 0.0 0.0 0.00 0.00 0.00 65 1007.8
20260901103528 70 18 0.0 0.0 0.00 0.00 0.00 65 1007.8
20260901103021 70 19 0.0 0.0 0.00 0.00 0.00 66 1007.9
20260901102533 71 18 0.0 0.0 0.00 0.00 0.00 67 1008.0
20260901102024 71 17 0.0 0.0 0.00 0.00 0.00 66 1008.0
20260901101530 71 19 0.0 0.0 0.00 0.00 0.00 67 1008.0
20260901101026 71 19 0.0 0.0 0.00 0.00 0.00 66 1008.0
20260901100522 71 19 0.0 0.0 0.00 0.00 0.00 66 1008.1
20260901100032 71 19 0.0 0.0 0.00 0.00 0.00 66 1008.0
20260901095528 71 17 0.0 0.0 0.00 0.00 0.00 65 1007.9
20260901095026 71 17 0.0 0.0 0.00 0.00 0.00 65 1007.9
20260901094534 71 17 0.0 0.0 0.00 0.00 0.00 64 1007.9
20260901094031 71 17 0.0 0.0 0.00 0.00 0.00 64 1007.9
20260901093525 71 19 0.0 0.0 0.00 0.00 0.00 63 1008.0
20260901093047 71 17 0.0 0.0 0.00 0.00 0.00 63 1008.1
20260901092527 71 18 0.0 0.0 0.00 0.00 0.00 62 1008.2
20260901092035 72 19 0.0 0.0 0.00 0.00 0.00 61 1008.2
20260901091544 72 18 0.0 0.0 0.00 0.00 0.00 62 1008.2
20260901091024 72 19 0.0 0.0 0.00 0.00 0.00 60 1008.4
20260901090534 72 18 0.0 1.0 0.00 0.00 0.00 60 1008.3
20260901090029 72 18 0.0 1.0 0.00 0.00 0.00 59 1008.3
20260901085525 72 17 0.0 0.0 0.00 0.00 0.00 58 1008.3
20260901085038 73 17 0.0 0.0 0.00 0.00 0.00 59 1008.2
20260901084533 73 18 0.0 0.0 0.00 0.00 0.00 59 1008.1
20260901084025 73 18 0.0 1.0 0.00 0.00 0.00 59 1008.1
20260901083538 74 17 0.0 1.0 0.00 0.00 0.00 57 1008.1
20260901083032 74 17 0.0 0.0 0.00 0.00 0.00 56 1008.1
20260901082524 74 17 0.0 0.0 0.00 0.00 0.00 55 1008.2
20260901082033 75 17 0.0 0.0 0.00 0.00 0.00 54 1008.3
20260901081529 75 18 0.0 0.0 0.00 0.00 0.00 54 1008.2
20260901081025 75 18 0.0 1.0 0.00 0.00 0.00 52 1008.2
20260901080538 76 18 0.0 4.0 0.00 0.00 0.00 51 1008.2
20260901080031 76 18 0.0 4.0 0.00 0.00 0.00 50 1008.2
20260901075525 76 13 0.0 3.0 0.00 0.00 0.00 49 1008.2
20260901075038 76 238 0.0 1.0 0.00 0.00 0.00 49 1008.2
20260901074533 76 346 0.0 1.0 0.00 0.00 0.00 49 1008.1
20260901074025 76 346 0.0 2.0 0.00 0.00 0.00 48 1008.0
20260901073537 76 359 0.0 3.0 0.00 0.00 0.00 48 1008.0
20260901073029 77 6 0.0 3.0 0.00 0.00 0.00 49 1008.0
20260901072526 77 42 0.0 2.0 0.00 0.00 0.00 49 1007.9
20260901072035 77 51 0.0 2.0 0.00 0.00 0.00 47 1007.9
20260901071533 78 53 0.0 2.0 0.00 0.00 0.00 46 1007.8
20260901071028 78 51 0.0 2.0 0.00 0.00 0.00 46 1007.9
20260901070536 78 37 0.0 1.0 0.00 0.00 0.00 46 1008.0
20260901070035 78 22 0.0 2.0 0.00 0.00 0.00 46 1008.2
20260901065527 78 51 0.0 4.0 0.00 0.00 0.00 46 1008.1
20260901065024 78 13 0.0 4.0 0.00 0.00 0.00 45 1008.2
20260901064537 78 354 1.0 6.0 0.00 0.00 0.00 45 1008.0
20260901064030 78 309 1.0 8.0 0.00 0.00 0.00 46 1007.8
20260901063524 78 30 1.0 9.0 0.00 0.00 0.00 46 1007.9
20260901063038 78 337 2.0 0.0 0.00 0.00 0.00 47 1007.9
20260901062531 78 47 1.0 7.0 0.00 0.00 0.00 47 1008.1
20260901062024 78 92 1.0 7.0 0.00 0.00 0.00 47 1008.2
20260901061537 78 76 3.0 10.0 0.00 0.00 0.00 47 1008.3
20260901061030 78 278 1.0 7.0 0.00 0.00 0.00 47 1008.1
20260901060525 78 191 1.0 7.0 0.00 0.00 0.00 49 1008.2
20260901060035 79 295 0.0 5.0 0.00 0.00 0.00 49 1008.0
20260901055533 79 63 0.0 7.0 0.00 0.00 0.00 47 1008.0
20260901055027 79 11 1.0 8.0 0.00 0.00 0.00 47 1008.1
20260901054536 79 321 3.0 8.0 0.00 0.00 0.00 47 1008.2
20260901054030 79 32 2.0 8.0 0.00 0.00 0.00 47 1008.2
20260901053522 78 271 2.0 7.0 0.00 0.00 0.00 47 1008.1
20260901053036 78 25 0.0 6.0 0.00 0.00 0.00 48 1008.2
20260901052528 78 326 1.0 8.0 0.00 0.00 0.00 50 1008.3
20260901052022 78 275 2.0 8.0 0.00 0.00 0.00 50 1008.4
20260901051537 78 273 1.0 5.0 0.00 0.00 0.00 50 1008.5
20260901051030 78 132 0.0 9.0 0.00 0.00 0.00 51 1008.6
20260901050525 78 329 0.0 9.0 0.00 0.00 0.00 52 1008.7
20260901050035 77 6 1.0 5.0 0.00 0.00 0.00 52 1008.7
20260901045532 77 36 1.0 6.0 0.00 0.00 0.00 53 1008.7
20260901045037 77 53 0.0 6.0 0.00 0.00 0.00 55 1008.6
20260901044522 77 333 1.0 7.0 0.00 0.00 0.00 55 1008.6
20260901044036 77 336 1.0 6.0 0.00 0.00 0.00 56 1008.5
20260901043529 77 335 2.0 11.0 0.00 0.00 0.00 56 1008.4
20260901043025 77 23 3.0 11.0 0.00 0.00 0.00 57 1008.3
20260901042535 77 75 2.0 9.0 0.00 0.00 0.00 55 1008.4
20260901042131 78 172 3.0 9.0 0.00 0.00 0.00 55 1008.2
20260901041525 78 347 3.0 9.0 0.00 0.00 0.00 53 1008.3
20260901041044 78 256 2.0 6.0 0.00 0.00 0.00 53 1008.4
20260901040532 79 259 2.0 12.0 0.00 0.00 0.00 52 1008.2
20260901040030 79 283 1.0 12.0 0.00 0.00 0.00 52 1008.2
20260901035538 79 257 3.0 11.0 0.00 0.00 0.00 50 1008.1
20260901035031 79 186 0.0 11.0 0.00 0.00 0.00 50 1008.0
20260901034527 79 285 0.0 5.0 0.00 0.00 0.00 50 1007.8
20260901034023 79 231 0.0 4.0 0.00 0.00 0.00 50 1007.7
20260901033533 79 125 0.0 4.0 0.00 0.00 0.00 50 1007.5
20260901033045 80 267 1.0 7.0 0.00 0.00 0.00 49 1007.3
20260901032523 80 61 2.0 11.0 0.00 0.00 0.00 49 1007.1
20260901032045 80 259 2.0 11.0 0.00 0.00 0.00 48 1007.0
20260901031534 81 165 0.0 5.0 0.00 0.00 0.00 47 1007.0
20260901031028 82 250 0.0 5.0 0.00 0.00 0.00 45 1006.8
20260901030539 82 230 2.0 5.0 0.00 0.00 0.00 43 1006.6
20260901030041 82 222 0.0 4.0 0.00 0.00 0.00 40 1006.3
20260901025531 82 172 0.0 4.0 0.00 0.00 0.00 40 1006.3
20260901025025 82 197 0.0 4.0 0.00 0.00 0.00 38 1006.1
20260901024545 83 198 0.0 4.0 0.00 0.00 0.00 39 1005.9
20260901024033 83 98 0.0 15.0 0.00 0.00 0.00 38 1005.3
20260901023525 84 153 4.0 15.0 0.00 0.00 0.00 36 1005.3
20260901023036 84 105 3.0 7.0 0.00 0.00 0.00 35 1004.9
20260901022530 85 114 0.0 5.0 0.00 0.00 0.00 35 1004.3
20260901022028 84 134 2.0 5.0 0.00 0.00 0.00 35 1003.8
20260901021536 84 70 0.0 6.0 0.00 0.00 0.00 36 1003.5
20260901021032 84 43 0.0 8.0 0.00 0.00 0.00 37 1003.4
20260901020529 84 49 2.0 8.0 0.00 0.00 0.00 37 1003.0
20260901020036 84 75 2.0 7.0 0.00 0.00 0.00 37 1002.8
20260901015531 84 57 1.0 7.0 0.00 0.00 0.00 38 1002.8
20260901015030 84 245 1.0 8.0 0.00 0.00 0.00 38 1002.6
20260901014523 84 335 1.0 9.0 0.00 0.00 0.00 39 1002.5
20260901014031 84 42 2.0 9.0 0.00 0.00 0.00 37 1002.5
20260901013529 85 336 3.0 8.0 0.00 0.00 0.00 38 1002.5
20260901013023 85 290 1.0 9.0 0.00 0.00 0.00 36 1002.6
20260901012536 86 277 2.0 9.0 0.00 0.00 0.00 35 1002.4
20260901012034 86 187 0.0 7.0 0.00 0.00 0.00 33 1002.2
20260901011526 85 138 0.0 7.0 0.00 0.00 0.00 33 1002.1
20260901011022 85 65 0.0 3.0 0.00 0.00 0.00 33 1001.9
20260901010535 85 67 0.0 1.0 0.00 0.00 0.00 32 1001.8
20260901010025 86 319 0.0 1.0 0.00 0.00 0.00 32 1001.7
20260901005536 86 38 0.0 1.0 0.00 0.00 0.00 31 1001.6
20260901005025 87 39 0.0 1.0 0.00 0.00 0.00 31 1001.6
20260901004624 87 21 0.0 2.0 0.00 0.00 0.00 32 1001.6
20260901004133 88 262 0.0 2.0 0.00 0.00 0.00 32 1001.6
20260901003632 88 257 0.0 4.0 0.00 0.00 0.00 31 1001.8
20260901003031 89 105 0.0 3.0 0.00 0.00 0.00 32 1001.8
20260901002532 90 20 0.0 3.0 0.00 0.00 0.00 31 1001.9
20260901002023 90 81 0.0 9.0 0.00 0.00 0.00 30 1001.9
20260901001534 91 203 2.0 9.0 0.00 0.00 0.00 29 1001.9
20260901001028 92 193 0.0 1.0 0.00 0.00 0.00 31 1001.9
20260901000540 92 132 0.0 1.0 0.00 0.00 0.00 28 1001.7
20260901000031 92 127 0.0 2.0 0.00 0.00 0.00 28 1001.8
20260831235527 92 113 0.0 2.0 0.00 0.00 0.00 29 1001.8
20260831235029 93 114 0.0 1.0 0.00 0.00 0.00 31 1001.7
20260831234539 94 114 0.0 1.0 0.00 0.00 0.00 28 1001.7
20260831234031 94 113 0.0 3.0 0.00 0.00 0.00 29 1001.6
20260831233525 94 169 0.0 3.0 0.00 0.00 0.00 26 1001.5
20260831233035 94 118 0.0 3.0 0.00 0.00 0.00 26 1001.5
20260831232530 94 137 0.0 2.0 0.00 0.00 0.00 27 1001.5
20260831232028 93 138 0.0 2.0 0.00 0.00 0.00 27 1001.5